Wind_Speed
4 4 4 4 5 6 6 6 7 9 10 11 12 14 16 16 17 17 14 12 12 14 14 13 14 15 17 16 14 13 13 12 11 11 11 10 7 7 7 7 9 11 12 13 14 15 16 18 18 19 19 20 21 22 24 26 28 29 30 30 30 29 28 28 29 29 27 25 23 22 22 22 23 23 24 26 27 29 29 23 21 22 25 28 28 26
2 3 3 3 4 4 5 5 7 9 11 12 11 11 12 12 13 14 13 13 13 14 15 14 14 15 16 15 14 13 13 12 11 11 11 10 9 9 9 9 11 12 14 15 16 17 19 20 21 21 22 23 24 26 28 29 30 30 31 32 32 31 30 29 29 30 29 28 26 25 26 26 26 27 27 28 26 26 27 22 19 19 22 26 27 27
1 3 4 4 3 3 4 5 8 10 11 10 8 8 8 8 9 11 12 14 15 15 15 14 14 15 14 13 13 12 12 11 10 10 11 10 11 12 12 13 14 15 16 17 19 20 22 22 23 24 26 27 28 30 32 33 33 33 33 34 35 35 34 32 31 31 31 31 30 29 28 28 29 29 29 29 28 25 24 22 20 21 24 27 28 28
3 3 4 4 3 3 2 4 6 10 10 8 6 6 7 7 7 8 12 15 16 16 15 14 13 14 13 11 11 11 10 9 8 9 11 13 14 15 15 16 16 17 17 19 20 22 23 24 25 27 28 30 32 34 35 36 36 37 37 37 38 38 37 36 35 34 33 33 32 32 31 31 30 30 30 30 29 28 25 23 23 24 26 28 29 29
3 3 4 4 4 4 3 3 4 6 7 6 6 6 6 7 6 5 9 14 16 16 16 15 14 14 13 12 12 12 10 9 10 11 13 15 17 18 19 19 19 19 20 20 22 23 25 26 27 29 31 33 35 37 38 38 39 40 40 40 41 41 40 40 39 38 37 36 35 34 34 34 33 33 31 30 30 30 28 26 25 25 26 28 28 28
3 3 3 4 3 3 3 3 3 5 5 5 6 6 5 6 7 6 8 13 16 17 19 19 19 19 18 17 15 15 14 13 13 14 16 18 20 21 22 23 23 23 23 23 23 25 26 28 30 32 34 36 38 39 40 41 42 42 42 43 43 43 42 41 41 40 40 39 39 38 37 37 37 36 35 32 31 30 30 29 28 27 27 28 28 28
3 2 3 4 4 4 4 4 5 7 7 7 7 8 8 8 10 11 12 13 16 18 21 23 25 25 24 22 20 19 19 18 17 18 19 21 23 24 25 25 26 26 26 26 26 27 28 30 33 35 37 38 40 41 43 44 45 46 46 46 45 45 44 43 43 42 42 42 42 41 40 40 40 40 38 37 35 33 31 31 31 30 30 29 28 28
4 3 2 4 5 6 7 7 7 9 9 10 10 11 11 11 13 15 16 18 18 20 22 24 27 29 29 26 23 22 22 21 21 21 22 23 24 26 27 27 28 28 28 29 29 30 31 32 34 36 38 40 42 44 45 47 48 49 49 48 48 47 47 46 45 45 45 44 44 43 43 43 43 42 41 40 39 37 34 33 33 33 32 32 31 29
5 5 5 5 5 7 8 8 9 9 10 11 12 13 12 12 13 15 17 19 20 22 23 24 26 30 31 28 26 24 24 24 24 24 24 25 26 28 28 29 29 30 30 31 32 32 33 35 36 38 40 42 44 46 47 48 49 50 50 50 50 50 50 49 49 48 48 47 46 45 43 43 43 43 43 42 41 40 38 35 35 36 35 34 34 31
7 7 8 8 8 8 8 9 10 11 11 12 12 13 12 13 13 15 17 18 20 22 24 25 26 28 30 29 27 25 25 25 25 26 26 27 28 29 30 31 31 32 32 33 34 35 36 37 39 41 42 44 45 46 48 49 50 50 51 52 53 53 53 53 53 52 51 50 49 47 46 45 44 43 43 43 43 42 41 39 37 37 37 36 36 35
9 9 11 12 12 11 11 11 12 13 13 13 13 12 12 14 15 15 16 18 20 21 22 25 26 28 30 28 27 27 26 26 26 27 29 30 31 32 32 33 33 34 34 35 36 37 38 40 41 43 44 45 46 47 48 49 50 51 52 53 53 54 54 55 55 54 54 53 51 50 49 48 47 45 45 45 45 44 44 43 40 39 39 39 38 38
13 12 13 15 15 15 15 14 14 15 16 16 16 14 13 15 17 17 17 18 20 20 21 25 26 28 30 28 27 27 27 27 28 29 31 32 33 34 34 34 35 36 37 38 39 40 41 43 44 44 45 45 46 48 49 51 52 53 53 54 54 55 55 55 55 56 56 56 55 54 52 51 49 48 48 47 47 47 46 46 44 42 41 41 40 40
17 16 16 17 18 18 18 18 18 18 19 20 19 18 16 17 17 17 18 19 19 20 22 24 26 28 28 27 27 27 28 28 29 30 32 34 34 35 35 36 38 38 40 41 42 43 43 44 45 45 46 47 48 49 51 52 53 54 54 55 56 56 57 57 57 58 59 59 59 58 56 55 53 52 50 50 49 49 48 48 47 46 44 43 42 42
21 21 20 20 20 21 21 21 21 22 23 24 23 23 22 21 20 19 19 21 20 21 22 24 26 27 26 25 26 27 28 29 30 32 33 34 35 36 37 38 39 40 42 42 43 44 45 46 47 48 48 49 50 52 53 54 54 54 55 56 57 57 58 58 59 60 60 61 61 61 60 59 57 55 54 52 51 50 50 49 48 47 46 45 44 43
23 24 24 24 23 24 24 25 24 24 25 26 26 26 26 25 25 24 23 23 23 23 23 24 28 28 26 25 25 25 27 29 31 33 34 35 37 38 39 40 41 42 43 44 45 47 48 49 50 51 51 52 53 55 56 56 56 56 57 57 57 57 58 59 60 61 61 62 62 62 62 61 60 59 57 55 53 52 51 50 49 49 48 47 45 44
26 25 26 27 28 28 28 28 28 28 28 28 28 28 29 29 29 29 29 28 27 27 24 23 27 28 28 27 25 26 28 29 31 34 36 38 39 40 42 43 44 45 46 48 49 51 52 53 53 54 54 55 57 58 59 59 60 60 60 60 59 59 60 60 61 62 62 63 63 63 62 61 60 60 60 58 57 54 52 51 50 50 49 49 48 47
29 28 27 28 29 30 31 32 32 32 32 31 31 31 31 32 32 32 33 33 33 33 30 26 27 27 28 28 27 28 30 31 33 36 38 40 42 43 44 46 48 49 51 52 53 54 55 56 56 56 57 58 59 61 62 63 63 63 64 63 63 64 64 64 63 63 63 64 64 63 62 61 61 60 60 59 58 57 56 54 53 52 51 51 50 49
32 31 30 30 31 31 33 35 35 35 35 35 34 34 34 34 34 35 36 37 37 38 36 33 31 29 28 28 27 29 31 33 36 38 40 42 43 45 47 49 51 52 53 54 55 56 57 58 58 59 60 61 62 63 64 65 66 66 67 67 68 68 68 67 67 66 65 64 63 63 63 63 63 62 62 60 59 59 58 57 56 55 55 54 54 53
34 34 33 31 31 32 34 36 37 37 37 37 37 36 36 36 37 37 38 40 41 42 42 39 37 33 30 29 29 30 32 34 38 40 41 43 45 46 48 50 52 53 54 55 56 57 58 59 60 61 61 62 64 65 66 67 68 69 70 71 72 72 71 70 69 67 65 63 62 63 63 64 64 64 64 62 60 59 59 59 58 58 58 58 58 57
35 36 35 32 31 32 34 36 38 39 39 40 40 40 39 39 39 39 40 41 42 44 45 44 42 38 34 33 33 33 34 37 40 42 43 45 46 47 49 51 53 54 55 56 57 58 58 59 60 61 62 64 65 66 67 69 70 71 72 73 74 73 73 71 68 65 63 62 63 64 65 66 67 66 65 63 61 61 61 61 62 62 62 62 61 60
36 37 37 35 32 31 33 35 38 39 39 40 42 42 43 42 42 42 42 42 44 46 46 47 46 41 37 36 36 36 38 40 43 44 45 46 47 49 50 52 54 55 56 56 56 57 58 59 61 62 64 65 66 68 69 71 72 73 74 74 74 73 73 71 69 67 65 64 65 67 68 70 70 69 67 65 64 64 65 65 65 65 65 64 62 61
37 38 39 38 35 32 32 35 37 38 39 40 41 42 43 44 44 45 45 45 46 47 48 49 49 44 40 39 39 40 42 44 45 46 47 48 49 50 52 53 54 55 55 56 56 57 58 60 62 63 65 67 68 70 71 72 73 74 74 74 74 74 73 72 72 71 70 69 69 70 71 71 71 70 70 68 68 68 68 68 67 66 65 64 63 62
39 39 40 40 38 35 34 34 36 37 39 39 40 41 42 43 44 45 47 47 48 48 48 50 51 48 43 41 42 43 44 46 47 48 49 51 51 52 53 54 55 56 56 56 57 58 60 62 64 66 67 69 70 71 72 73 74 74 75 75 76 75 75 75 74 74 73 73 72 72 72 72 72 72 72 71 71 70 69 68 67 65 64 64 64 63
41 41 42 41 40 38 37 36 36 37 38 40 41 42 42 43 44 45 46 47 49 49 48 50 52 50 45 44 45 46 47 49 50 51 52 53 54 54 55 56 57 57 58 58 59 60 62 64 66 68 70 71 72 72 73 74 74 75 75 76 76 76 76 76 75 75 74 73 73 72 73 73 72 72 72 72 71 70 68 67 67 66 66 65 65 67
43 43 43 43 43 42 40 39 38 38 39 40 41 42 43 44 45 45 46 48 50 48 47 50 53 49 46 47 48 49 50 51 52 54 54 55 56 56 56 57 58 58 59 60 61 63 65 66 68 69 70 71 72 73 73 73 74 74 75 76 76 76 75 75 75 74 73 73 73 73 74 74 73 73 72 71 70 69 69 68 68 68 69 70 71 73
46 45 45 45 45 45 43 40 40 41 41 41 41 42 43 45 46 47 47 49 50 47 48 52 52 50 48 49 50 50 52 53 54 56 56 57 57 57 57 58 59 59 60 62 63 65 67 68 69 69 70 72 73 73 73 74 75 76 76 76 77 76 76 75 75 74 74 75 75 75 75 74 73 71 70 69 69 70 70 70 71 72 73 75 76 78
48 48 47 47 47 47 44 43 43 43 42 42 41 42 43 46 47 48 49 49 48 49 51 52 51 52 51 50 50 52 53 54 56 57 58 58 58 58 58 59 60 61 62 64 65 67 68 69 69 70 72 73 74 75 76 77 78 78 78 78 77 77 76 76 76 77 77 77 76 75 73 72 70 69 69 68 69 69 70 71 72 73 74 75 76 78
49 49 48 47 47 46 45 44 45 45 45 44 43 43 44 45 47 48 49 48 47 51 54 51 50 54 54 50 50 53 54 56 57 58 58 58 58 59 59 61 63 64 65 66 67 68 69 70 71 72 74 75 77 78 79 79 79 79 79 78 77 77 77 78 78 78 78 77 75 73 72 71 70 70 69 68 68 68 68 68 69 69 71 72 73 72
49 49 48 48 48 46 45 45 46 46 47 46 47 46 46 48 48 48 48 47 48 52 54 51 51 55 54 51 51 54 55 57 57 58 58 58 58 59 61 63 65 66 67 68 69 69 70 70 71 73 75 77 78 79 79 79 79 79 78 77 77 77 78 78 79 78 76 75 73 72 71 71 71 71 71 70 68 67 66 65 66 67 68 69 69 68
49 50 49 49 49 47 46 47 48 48 49 50 49 50 51 52 51 49 49 48 49 52 52 51 53 55 53 52 53 55 56 57 57 58 58 58 59 61 64 65 66 67 68 69 69 70 71 71 72 74 77 78 78 79 78 78 78 78 77 77 77 78 78 78 77 75 73 72 71 70 70 71 71 71 70 69 68 67 66 66 66 67 68 69 70 69
50 51 51 51 52 50 49 50 51 52 53 53 53 53 54 54 53 52 52 50 50 52 52 52 55 55 52 52 54 55 56 56 57 58 59 60 62 64 65 66 66 67 69 70 71 72 73 74 75 77 78 78 78 78 78 78 77 77 78 78 79 78 77 76 75 72 71 70 69 69 70 70 70 69 68 68 68 68 69 68 68 68 70 72 72 72
53 53 53 53 55 53 52 54 55 55 57 57 56 55 55 54 54 54 53 51 51 53 54 55 57 55 54 54 54 54 54 55 57 58 60 62 64 64 65 66 66 67 68 70 72 73 74 76 77 78 78 78 78 78 77 77 77 77 77 77 76 75 73 72 71 70 70 69 69 69 69 69 69 69 69 70 71 72 72 72 72 73 74 74 73 72
55 55 55 56 58 56 55 57 58 58 61 59 55 53 53 54 54 53 52 52 52 54 56 57 57 55 55 54 54 54 55 57 58 60 62 63 63 64 65 65 66 67 68 70 72 73 75 76 77 77 77 77 76 76 76 76 76 75 75 73 72 71 70 70 70 70 70 69 70 70 70 71 71 72 72 74 75 76 76 78 78 77 76 74 71 70
57 57 56 57 59 58 58 59 61 63 63 58 53 52 54 54 54 53 52 52 53 55 57 57 56 55 54 55 55 57 58 59 60 61 62 62 63 64 65 65 66 67 69 70 72 73 74 75 75 75 75 75 75 75 75 75 74 73 71 69 69 68 69 70 71 71 71 71 72 72 73 74 75 76 77 78 79 80 81 80 77 74 71 68 66 65
59 58 57 58 59 60 60 61 64 64 60 56 53 54 55 55 54 53 53 53 54 56 56 55 56 55 56 57 58 59 59 60 60 61 61 62 63 64 65 66 67 68 70 71 72 73 74 75 75 75 75 74 73 73 72 71 70 69 67 67 67 68 69 71 72 73 74 75 75 77 78 78 79 79 79 79 78 77 74 71 67 63 61 60 60 59
60 59 58 58 59 60 61 62 64 63 59 56 56 57 56 56 56 56 56 56 56 57 57 57 57 57 58 58 59 59 59 59 60 61 61 63 63 64 65 66 68 70 72 73 74 74 75 75 75 73 71 69 69 68 67 66 66 65 65 66 67 69 71 73 74 76 77 78 78 78 77 76 75 74 72 69 66 63 60 57 55 54 54 55 54 54
60 59 58 58 58 58 59 61 62 61 59 57 56 56 56 55 55 56 57 58 59 59 58 58 58 58 59 59 59 59 59 60 61 62 63 64 64 66 67 69 71 72 73 74 74 73 72 70 68 66 65 64 63 63 62 62 62 63 65 67 69 71 74 76 78 79 78 77 75 72 69 66 64 62 59 56 53 51 49 49 48 48 49 50 50 50
60 59 58 57 57 55 56 58 58 60 59 56 54 54 54 54 55 56 58 59 60 58 57 58 59 59 59 59 59 60 60 61 62 63 65 65 66 68 70 71 72 72 71 70 68 66 64 63 61 60 59 58 58 58 59 60 62 64 66 69 73 76 78 78 77 76 73 69 65 61 57 54 53 51 49 46 45 45 44 44 44 45 46 48 49 49
57 57 56 56 55 54 54 56 56 57 57 54 53 54 54 54 55 57 59 60 58 56 57 58 59 59 59 60 60 62 63 64 64 65 67 67 68 68 68 67 67 66 65 63 61 61 60 59 57 56 55 54 55 56 58 61 63 67 71 74 77 77 76 73 69 66 62 58 55 52 50 48 47 45 43 42 41 41 41 41 41 42 45 48 49 49
56 55 55 55 55 53 55 57 58 57 56 55 54 54 54 55 56 58 60 60 57 58 59 59 59 59 59 61 62 64 65 66 65 66 67 66 64 63 62 62 62 62 61 60 59 59 58 55 53 51 51 53 54 56 59 63 68 72 73 73 72 70 67 64 59 56 54 51 49 47 46 45 44 42 39 38 38 39 40 41 43 45 47 49 50 50
56 56 56 56 56 56 58 60 61 59 56 55 55 54 54 55 57 58 59 59 59 60 60 59 59 60 61 62 64 65 66 66 65 62 60 59 58 58 59 60 60 59 58 58 57 56 53 50 49 49 51 53 55 58 63 66 67 66 64 64 64 63 60 57 53 50 47 45 43 42 41 41 39 37 36 37 38 39 39 38 38 38 38 39 40 41
59 59 59 60 59 59 60 61 62 60 55 55 56 56 56 58 60 60 60 59 59 58 58 58 59 60 62 63 64 65 64 62 58 55 53 53 55 57 58 58 57 56 55 54 52 50 47 45 46 48 51 54 57 61 62 60 57 56 56 59 60 58 53 49 45 42 39 37 36 36 35 35 35 35 34 33 33 31 26 24 25 24 23 23 23 23
60 61 62 61 60 60 60 61 62 59 54 53 55 56 56 58 58 57 56 55 56 57 58 59 60 61 62 63 63 62 59 54 51 50 50 52 54 55 55 55 54 53 52 49 46 44 42 42 45 48 51 55 58 58 54 51 51 52 54 57 56 51 44 38 34 32 31 31 32 32 33 33 32 29 26 23 22 19 16 16 18 17 14 12 11 11
58 59 60 61 60 60 59 58 56 52 49 49 51 51 52 52 52 53 54 56 58 59 59 59 60 61 62 61 59 56 52 49 49 49 50 51 53 53 53 52 51 50 47 43 40 39 40 41 44 48 52 55 54 50 48 50 51 52 53 54 51 45 38 33 31 31 31 31 32 32 31 27 22 19 18 18 17 16 13 9 6 4 5 5 7 9
60 60 59 58 57 56 55 53 51 50 49 50 51 51 52 53 54 56 57 57 57 58 59 60 61 60 59 56 52 50 48 48 48 49 50 51 52 51 50 50 49 46 41 38 37 37 39 41 44 48 51 51 48 46 49 52 52 52 52 50 47 41 36 34 33 34 34 34 31 27 21 17 16 16 16 14 14 14 9 4 3 5 7 7 9 8
57 56 55 54 52 51 50 49 48 48 49 50 51 53 55 56 56 56 56 56 58 59 59 59 57 55 52 49 48 47 47 47 47 48 50 51 51 50 49 47 44 40 36 35 35 36 39 41 44 47 48 46 45 48 51 52 52 50 49 46 43 40 37 35 35 36 35 30 24 20 18 17 14 11 10 11 14 14 11 8 8 8 8 7 8 8
59 59 59 58 57 55 54 53 53 54 55 57 59 60 60 59 58 57 58 58 58 56 53 50 49 47 46 45 45 46 46 47 48 49 50 50 49 48 46 43 39 35 33 32 33 35 38 41 44 46 45 43 45 49 51 50 49 47 44 42 40 37 35 35 35 33 28 21 19 20 19 15 11 8 10 14 16 14 13 12 10 9 9 9 5 4
66 67 67 67 65 63 62 61 60 61 61 61 61 60 58 57 56 56 55 53 50 46 44 43 43 43 43 43 44 44 45 47 49 49 49 49 47 44 41 37 33 31 30 31 33 36 38 40 43 44 42 41 44 48 48 47 45 43 41 40 38 36 35 34 32 26 20 18 20 19 13 10 10 10 12 14 13 12 14 13 11 11 13 13 8 7
60 61 61 61 61 60 60 60 60 60 59 59 58 56 55 54 52 49 47 44 42 40 39 40 41 41 42 43 43 44 45 48 48 48 48 46 43 39 35 32 29 28 28 30 33 36 38 40 41 42 41 40 43 46 46 46 44 41 39 37 37 36 34 30 24 19 17 18 18 14 10 11 13 12 11 12 12 11 11 11 12 15 18 19 17 16
53 54 54 55 55 55 57 58 59 58 58 57 55 53 50 46 43 41 40 38 37 38 39 40 41 41 41 42 43 44 46 47 47 47 45 42 38 34 31 28 27 26 27 29 33 36 38 39 41 41 39 39 41 43 43 44 43 40 37 36 35 33 29 23 18 16 17 16 14 13 14 15 15 13 12 12 11 9 10 13 16 18 21 23 23 26
54 55 55 56 57 57 57 57 58 58 57 54 51 47 43 40 38 36 36 36 37 38 39 39 40 40 41 42 43 45 46 46 46 44 42 38 33 30 27 26 25 25 26 29 32 35 37 38 40 39 37 37 39 39 40 43 42 39 36 35 32 27 21 17 15 16 15 13 14 17 18 16 14 13 12 12 12 13 15 18 21 22 25 27 28 31
Wind_Direction
325 1 16 1 349 337 329 322 304 295 286 275 273 277 276 270 268 273 265 244 240 251 261 268 271 275 280 286 292 295 300 305 309 314 321 327 309 279 278 285 289 291 290 289 291 297 305 310 312 312 313 312 310 308 307 306 307 310 313 316 320 325 325 324 323 323 326 328 329 328 328 328 327 325 323 324 327 329 326 307 285 284 289 296 302 302
327 38 46 24 359 337 330 319 298 290 286 279 274 271 266 251 247 260 264 256 257 261 267 278 285 285 285 289 294 296 300 302 303 306 311 312 300 279 269 270 275 278 282 287 295 301 305 307 310 312 312 310 309 307 306 306 308 311 314 316 318 320 320 319 318 317 317 319 321 322 323 323 324 324 322 323 326 328 327 315 292 285 290 294 299 302
358 59 63 49 23 352 330 315 302 297 297 300 298 281 265 245 243 264 277 276 275 276 276 281 286 289 291 292 294 298 299 299 301 303 301 293 284 279 276 275 273 274 281 290 297 301 302 305 307 309 309 308 306 305 305 307 309 312 314 314 315 316 317 318 317 316 314 313 314 316 318 319 320 321 320 320 322 323 323 317 302 292 292 293 294 295
11 39 47 48 40 23 340 309 299 296 300 306 297 278 271 268 265 276 284 284 283 283 286 289 289 292 298 297 295 299 300 297 297 295 291 283 276 274 274 275 277 279 284 289 294 297 300 302 305 305 305 304 303 304 305 308 310 312 312 312 313 315 316 316 315 314 312 311 310 311 313 315 315 317 318 317 318 318 317 313 306 299 295 295 295 294
352 8 15 18 20 21 358 322 294 287 291 287 270 266 270 276 282 278 271 275 282 288 293 295 294 295 299 298 295 296 294 288 285 282 279 276 274 273 274 277 281 283 283 286 290 294 297 300 302 303 302 303 303 305 307 309 310 311 311 312 313 314 314 314 313 312 310 310 310 310 310 311 312 312 314 314 313 313 311 308 303 299 297 296 297 295
316 330 341 338 339 349 344 319 283 266 269 266 260 265 270 275 288 289 269 263 272 286 295 296 296 297 298 295 294 294 291 285 280 278 277 276 276 276 278 282 284 285 284 285 289 292 296 299 301 302 302 303 304 306 307 308 308 309 310 311 311 311 311 310 310 309 309 309 309 309 310 310 310 309 309 309 308 307 306 304 300 296 294 293 293 293
292 312 314 301 296 290 277 261 255 254 256 260 260 266 275 282 290 293 288 274 269 278 290 295 297 298 297 296 296 294 292 288 284 280 279 278 280 281 281 282 284 285 286 288 290 293 296 298 300 301 302 303 305 306 307 307 308 309 309 309 308 308 308 307 307 307 306 306 306 307 308 309 308 306 305 305 305 304 302 300 298 296 294 293 291 290
289 294 275 269 269 273 271 261 257 260 265 272 275 278 283 287 291 292 290 287 283 281 285 292 295 295 295 296 296 294 293 291 287 283 282 280 280 280 280 281 284 286 288 290 292 293 295 297 299 300 302 304 305 306 307 307 308 308 308 307 306 306 305 305 305 304 304 304 304 304 305 305 304 303 303 302 302 301 299 297 296 295 295 294 293 291
283 285 273 265 261 268 276 276 273 272 274 280 283 286 290 292 294 293 290 288 288 285 285 288 289 289 290 293 294 293 293 291 286 284 285 284 282 280 281 284 286 288 290 291 292 293 295 297 299 301 302 303 304 305 305 305 305 305 304 303 303 303 303 304 304 303 302 301 301 300 300 300 299 299 300 299 299 297 296 295 294 294 294 294 293 292
277 283 284 282 278 277 277 279 280 274 273 276 280 285 292 295 294 291 290 288 286 286 288 288 287 286 287 290 293 295 294 290 287 287 289 290 287 285 285 287 288 289 290 291 291 293 294 296 298 300 301 301 301 302 302 301 301 301 301 301 302 303 303 304 303 303 302 302 301 300 299 297 296 295 295 295 296 295 294 293 292 291 292 291 291 291
277 279 283 284 284 286 283 282 282 277 273 273 274 280 286 291 292 288 287 287 287 289 290 288 288 287 288 292 296 296 295 291 289 290 292 292 290 289 289 289 290 290 291 291 291 292 294 295 297 298 298 298 298 298 298 298 298 298 298 298 299 300 301 301 302 302 302 301 301 300 299 298 297 295 292 291 292 293 292 292 290 289 289 289 288 288
278 277 278 280 282 285 285 285 285 281 280 280 279 281 280 282 286 284 284 286 288 290 289 288 290 290 292 297 298 296 295 293 291 291 291 291 290 290 290 291 291 291 291 291 291 292 293 295 295 295 295 294 295 296 296 296 296 296 296 297 297 298 299 299 300 300 299 298 298 298 298 298 298 296 294 291 290 289 290 290 289 287 286 287 286 286
280 278 276 277 279 282 283 285 286 285 285 285 283 281 276 273 273 274 280 283 284 286 287 287 289 290 293 297 298 297 296 293 291 290 289 290 290 290 291 291 291 291 290 290 290 291 292 292 291 291 291 292 292 293 294 294 295 296 296 297 297 298 298 299 298 297 296 296 296 296 297 297 297 296 294 292 289 287 286 287 287 286 285 284 284 284
282 283 282 279 278 280 281 284 286 286 288 289 289 286 284 281 278 277 279 280 281 283 284 286 286 287 291 295 295 295 294 292 291 290 289 289 289 289 290 290 290 290 290 290 289 289 289 288 288 288 288 289 289 290 291 292 293 295 295 296 297 298 298 298 296 295 295 295 295 295 295 295 296 295 294 292 290 286 284 283 284 284 283 282 281 281
281 284 286 284 282 281 282 283 284 283 284 287 289 288 287 285 284 284 282 279 278 277 279 283 285 288 291 291 290 291 290 290 290 290 289 289 289 289 289 289 289 289 289 288 287 287 286 286 287 287 287 287 288 289 289 290 292 292 293 293 294 296 296 295 294 294 295 295 295 295 295 295 295 295 294 293 290 287 284 282 282 282 281 280 279 278
278 280 281 283 284 284 284 284 285 283 281 283 284 284 284 284 285 285 285 283 280 278 275 275 278 284 288 288 288 288 287 288 288 287 286 286 287 287 288 288 287 287 286 286 285 285 285 286 286 286 287 287 287 287 287 288 290 290 290 291 292 293 293 294 295 296 296 295 294 293 294 294 295 295 294 293 291 288 285 283 281 281 280 279 278 277
277 277 276 278 280 282 284 284 284 284 283 283 283 283 282 283 284 285 286 285 283 282 280 275 273 276 279 283 286 286 285 285 284 283 283 284 285 285 285 285 285 285 285 284 285 285 285 286 286 286 286 286 286 286 287 288 289 290 291 292 292 292 293 295 296 297 296 295 294 293 293 293 294 294 294 292 289 287 285 283 282 281 280 278 277 276
276 276 275 276 278 279 281 281 282 282 282 283 283 283 282 282 284 285 286 286 285 285 284 282 279 277 277 280 282 281 281 281 280 281 282 282 283 283 283 284 284 285 285 285 285 286 286 286 286 286 286 286 286 287 288 289 291 292 293 293 293 293 294 295 295 295 295 294 293 293 292 292 293 293 293 290 287 285 283 282 282 281 280 279 277 275
274 274 273 274 275 277 278 280 281 282 282 283 282 282 282 283 284 285 286 287 287 287 286 285 284 283 283 284 282 281 281 281 281 281 282 283 283 284 284 285 285 286 287 287 287 287 287 287 287 287 287 287 288 289 290 292 293 293 294 293 293 293 293 293 293 294 294 293 292 292 292 292 292 292 291 289 285 283 281 280 280 280 280 279 277 275
272 273 273 272 271 272 274 277 279 281 282 284 284 284 284 284 284 285 285 286 286 286 286 286 286 286 288 287 286 286 286 285 284 283 284 284 285 286 286 287 287 288 288 288 289 289 288 288 288 288 289 290 291 292 292 293 293 292 292 292 291 291 290 290 292 294 294 293 292 293 293 292 292 290 289 287 285 283 281 280 279 278 278 278 276 274
272 273 275 274 272 271 271 272 274 277 278 280 283 284 285 285 284 284 283 284 284 284 285 285 285 287 289 289 290 291 289 287 285 285 286 286 287 287 287 287 288 289 290 290 290 290 289 289 290 291 291 292 292 292 292 291 291 290 290 290 290 290 290 291 293 294 294 293 292 293 293 293 292 290 288 286 285 284 282 281 279 277 277 276 275 273
272 273 274 274 274 271 270 270 271 273 274 276 277 279 281 283 283 283 283 283 283 283 284 285 285 287 289 291 293 293 290 288 288 288 288 288 288 288 289 289 291 292 292 292 292 292 292 292 292 292 292 292 291 291 291 291 291 291 291 291 292 292 294 294 294 294 293 292 292 292 292 292 290 289 288 286 285 284 282 281 279 277 276 275 273 272
274 274 275 275 275 273 271 271 271 272 274 274 274 275 276 278 279 280 281 281 282 282 283 285 286 288 290 292 292 290 289 289 289 289 289 289 290 290 291 292 293 294 294 294 293 293 292 292 292 291 291 291 291 291 292 292 293 293 294 295 295 295 295 294 293 293 292 291 290 290 290 289 288 287 286 285 284 282 280 278 276 275 274 273 271 270
277 277 277 277 278 277 275 274 273 273 273 273 273 274 274 274 275 275 276 278 278 279 281 283 285 288 291 291 289 289 289 289 288 288 289 290 290 291 292 293 294 294 294 293 293 292 291 291 291 291 291 291 292 292 293 293 294 295 295 295 295 294 293 292 291 291 290 289 289 288 288 287 287 286 285 284 283 281 278 276 275 274 272 271 270 269
277 277 278 279 278 277 277 277 276 274 273 273 273 273 273 273 272 272 274 274 274 277 280 280 282 287 289 288 288 288 288 288 288 288 288 289 291 292 293 294 294 293 293 292 291 291 291 291 292 292 292 293 293 293 293 294 294 294 294 294 293 293 292 292 291 291 290 289 289 288 288 288 288 287 285 283 281 280 279 277 276 275 274 273 271 270
277 278 278 279 279 278 278 278 276 275 274 274 274 274 274 274 273 274 273 273 275 279 279 279 283 287 287 287 288 288 288 288 288 288 289 291 292 293 293 293 293 292 291 290 291 291 292 292 292 293 293 293 293 293 293 294 294 293 293 294 294 293 293 293 292 292 292 291 290 290 290 289 288 286 285 283 282 281 280 280 279 279 278 276 275 274
278 278 279 278 278 279 280 279 278 278 277 276 275 274 274 275 276 276 276 277 281 282 281 284 288 288 288 289 290 289 289 288 288 289 291 292 293 293 293 293 293 292 291 290 291 292 292 292 293 293 293 293 293 293 294 294 294 294 294 295 295 294 294 294 294 293 293 293 292 291 290 288 287 285 284 283 282 282 282 282 281 281 279 279 278 277
277 277 277 278 278 279 280 280 280 280 280 279 278 277 277 276 277 278 279 282 283 282 284 288 288 287 288 289 289 288 288 287 288 289 290 291 292 292 292 292 292 291 290 290 291 292 292 293 293 294 294 294 294 294 294 294 294 295 295 295 295 295 295 295 294 294 294 293 292 291 289 287 285 284 283 283 282 282 283 283 282 281 281 280 279 278
275 276 277 278 278 279 280 280 280 280 281 281 281 282 281 279 279 280 282 283 281 280 285 288 286 286 289 289 287 287 286 287 288 289 289 290 290 290 290 290 290 289 288 289 290 292 293 293 294 295 295 295 295 294 294 294 294 294 295 295 295 295 295 295 294 294 293 292 291 289 287 286 285 284 284 284 283 283 283 283 282 282 282 281 280 279
274 276 276 277 277 278 279 279 279 280 280 280 282 283 282 282 283 284 284 282 281 281 285 286 284 286 289 288 286 286 287 288 289 289 289 288 288 288 288 289 289 288 288 289 291 292 293 294 294 295 296 295 295 294 294 294 295 295 295 295 295 295 295 294 294 293 292 290 289 287 286 286 285 285 285 285 285 284 283 283 282 282 281 280 279 278
273 274 274 276 277 277 278 278 278 279 279 280 281 282 283 285 286 286 285 285 284 285 286 285 285 287 288 286 286 287 288 289 288 288 288 287 287 288 288 288 288 288 289 290 291 292 293 294 295 296 296 295 295 295 295 295 296 296 296 296 296 295 294 293 292 292 290 289 288 288 287 287 286 286 286 285 286 285 284 283 282 281 280 278 277 276
272 273 275 276 276 276 277 277 277 278 277 278 279 282 284 286 286 285 285 286 286 286 285 285 286 287 287 286 288 289 290 289 288 288 288 287 288 288 288 288 289 290 291 292 293 293 294 295 296 296 296 295 296 296 297 297 297 297 297 297 296 295 294 293 293 292 291 290 289 289 288 288 287 287 287 287 287 286 285 283 282 280 278 277 275 273
272 273 274 275 275 276 276 276 276 276 276 278 281 283 284 283 282 283 283 284 283 283 284 285 286 287 288 289 291 291 290 290 289 288 288 288 288 289 290 291 292 294 294 294 294 295 295 295 295 296 296 297 297 298 298 298 299 299 298 297 296 296 295 294 293 293 292 291 291 290 289 289 289 288 288 287 286 285 283 282 280 279 277 275 272 270
273 274 274 274 275 276 276 276 275 274 276 280 283 282 280 280 280 281 281 282 282 282 284 285 287 288 290 292 292 292 291 290 290 289 290 290 290 291 293 294 295 296 296 296 296 296 295 295 296 296 297 298 298 299 299 300 300 299 298 298 297 296 295 295 294 294 293 293 292 291 290 290 289 288 287 285 283 282 281 280 279 277 275 272 269 267
273 273 273 274 275 275 275 274 274 275 279 283 281 279 278 280 281 281 281 280 281 283 285 287 288 289 291 292 291 291 290 290 291 291 292 292 293 294 296 297 297 297 297 297 296 296 296 296 296 297 298 298 299 299 300 300 300 299 299 298 297 297 296 296 296 295 294 293 292 291 290 288 287 286 285 284 282 281 281 280 278 275 272 269 267 266
272 272 273 273 272 273 273 273 273 277 279 280 279 280 281 282 282 282 281 282 284 286 287 288 290 291 291 290 290 290 291 292 293 293 293 294 296 297 299 299 299 299 298 297 296 296 296 296 297 298 299 299 300 300 301 301 300 300 300 299 299 299 298 297 295 294 293 292 291 291 290 289 288 287 286 285 284 282 281 278 276 273 270 268 268 266
272 272 272 272 271 272 272 273 273 275 276 277 280 281 282 282 282 282 283 285 286 287 288 289 291 291 290 290 291 293 294 295 296 296 296 297 299 300 300 300 299 298 297 297 297 297 297 297 299 300 301 301 302 302 302 302 301 301 301 301 301 300 298 296 295 295 294 295 294 294 293 291 290 289 288 287 285 282 280 278 276 274 272 270 268 266
271 271 271 272 273 273 273 273 274 274 276 278 279 278 278 278 278 280 283 283 284 287 289 289 289 289 290 291 293 295 296 296 297 297 298 299 300 300 300 299 298 297 296 296 296 297 298 300 302 303 303 304 304 304 303 303 304 304 305 303 302 300 299 298 298 298 298 298 297 295 294 293 293 292 290 287 285 283 281 279 277 275 273 271 269 266
270 271 272 273 273 272 273 274 275 275 276 278 277 276 277 278 279 281 282 282 284 287 287 286 286 288 290 292 294 296 296 296 297 298 299 300 300 299 298 297 296 296 297 297 298 300 301 303 304 305 306 306 306 305 306 308 309 308 306 304 303 302 302 303 302 302 301 299 297 295 295 296 296 295 292 289 287 285 284 282 280 277 275 272 270 268
268 269 271 272 273 274 274 275 276 277 278 279 278 277 278 279 281 282 283 284 286 286 285 286 288 290 291 293 295 295 295 296 297 298 298 299 298 298 297 297 297 298 299 300 301 302 303 305 307 308 307 307 308 310 312 312 311 310 309 309 309 309 308 307 306 305 303 301 300 298 298 298 298 296 294 291 289 288 287 285 283 280 277 274 272 269
268 268 268 269 271 272 273 276 278 278 278 279 280 280 280 280 281 282 284 286 286 285 287 289 291 292 293 293 293 294 295 296 297 298 298 299 299 298 298 299 300 300 300 301 302 303 306 308 309 309 309 311 313 315 315 315 315 316 318 319 318 316 313 310 307 306 305 303 302 301 300 300 299 297 296 294 292 291 290 287 285 282 280 277 271 266
266 268 268 268 268 269 271 274 277 277 277 279 282 281 279 280 282 284 285 286 286 288 290 290 290 291 292 292 293 294 295 296 297 298 299 300 299 299 300 300 301 301 301 302 304 306 309 310 310 311 314 316 317 317 318 320 323 326 327 326 324 322 318 314 309 308 308 307 306 305 304 303 302 301 300 299 299 299 295 290 291 293 294 286 271 261
266 267 269 269 270 272 273 275 277 279 279 279 280 280 280 282 283 283 283 285 288 289 289 288 288 289 290 292 293 294 295 296 298 300 301 300 299 300 300 301 300 301 302 304 307 309 310 310 312 316 317 318 318 319 321 326 328 329 330 332 331 329 326 324 320 317 316 314 312 310 309 308 307 307 311 315 317 319 315 302 298 304 310 302 287 282
266 267 269 271 273 273 273 273 275 277 276 276 277 278 278 278 278 280 283 286 286 285 285 286 288 289 291 292 292 293 294 296 299 301 301 300 300 301 301 300 301 302 304 307 308 308 310 313 317 319 318 317 318 320 324 327 329 330 333 335 336 335 334 334 332 327 323 319 317 315 315 316 318 323 331 335 337 338 333 316 306 346 7 342 313 300
263 265 267 268 269 269 269 269 271 273 274 275 276 275 274 275 278 282 284 284 283 283 285 287 288 289 289 289 290 292 295 299 301 302 301 300 301 302 301 300 302 304 306 307 307 309 313 318 320 319 318 317 319 322 325 328 330 332 334 335 336 338 337 334 330 327 325 323 321 322 329 340 344 340 341 347 352 352 345 322 325 359 359 333 302 280
259 261 263 265 266 267 268 270 273 275 275 275 274 274 276 279 281 282 281 282 283 285 286 287 287 287 287 289 292 295 299 302 303 302 301 301 302 302 301 301 302 304 305 306 307 312 317 320 320 318 317 316 319 324 327 329 331 333 335 335 334 334 334 332 328 327 326 326 329 339 354 4 0 353 1 9 4 359 353 338 335 346 354 341 308 273
257 259 261 264 266 268 270 272 274 275 274 274 275 276 278 279 280 280 282 284 285 285 285 285 285 287 289 293 296 300 303 304 303 301 301 302 302 302 301 301 301 301 303 305 309 315 319 320 318 316 315 316 321 326 329 330 333 335 336 336 335 333 332 332 330 329 330 335 346 354 2 12 15 11 11 6 3 6 6 3 11 24 24 15 349 250
258 259 261 263 266 268 270 272 272 273 273 274 275 277 278 280 281 282 283 284 283 283 283 285 287 290 294 297 300 304 304 303 301 301 302 301 302 301 301 300 299 299 302 308 312 317 319 319 317 315 314 317 324 329 331 332 335 336 336 337 336 335 334 332 330 332 338 352 1 5 15 32 24 5 1 7 15 17 9 11 33 43 41 54 87 153
261 262 264 265 267 268 269 269 269 269 270 272 275 277 279 280 281 281 281 280 280 281 283 286 289 293 296 299 303 304 303 300 301 302 301 301 302 301 299 298 297 299 304 310 314 316 317 317 316 314 314 319 327 332 332 333 335 336 336 337 336 335 334 331 330 338 353 5 13 21 31 29 17 11 17 29 32 22 13 30 54 53 55 79 112 146
262 263 263 264 264 265 266 267 267 268 270 273 276 278 278 278 277 276 276 277 279 282 285 288 292 295 298 302 304 303 301 301 302 302 301 302 302 299 297 296 296 299 306 312 315 315 315 315 315 313 314 321 330 333 333 334 335 336 337 338 336 335 333 329 335 352 5 16 29 32 26 26 29 35 43 45 43 48 59 68 67 60 66 89 120 145
259 261 263 264 266 268 269 270 271 272 273 274 275 274 273 272 272 273 275 279 282 285 288 291 294 298 301 304 304 302 301 302 302 302 301 301 300 297 295 295 296 300 308 313 314 314 313 314 314 312 315 324 332 335 337 337 337 337 338 339 338 336 332 333 348 4 13 30 41 34 31 39 46 48 51 54 65 83 84 72 67 69 79 99 127 149
Height
5841 5841 5841 5841 5840 5840 5839 5839 5839 5838 5838 5838 5838 5838 5838 5838 5836 5834 5833 5832 5831 5831 5830 5830 5830 5829 5829 5829 5829 5829 5829 5829 5829 5829 5829 5829 5829 5829 5828 5827 5825 5825 5825 5824 5824 5823 5822 5821 5820 5819 5819 5819 5819 5818 5817 5815 5814 5813 5813 5812 5811 5811 5810 5809 5807 5806 5806 5806 5806 5805 5804 5803 5802 5801 5799 5798 5796 5793 5791 5789 5789 5789 5790 5791 5792 5791
5841 5840 5840 5840 5840 5839 5838 5838 5838 5838 5837 5837 5837 5837 5837 5837 5835 5833 5832 5830 5830 5830 5830 5830 5829 5828 5828 5828 5828 5828 5828 5828 5829 5828 5828 5827 5827 5828 5827 5826 5824 5823 5822 5822 5821 5820 5819 5818 5817 5816 5816 5815 5815 5814 5813 5812 5811 5811 5810 5809 5809 5809 5808 5807 5806 5805 5804 5804 5804 5803 5802 5801 5800 5799 5798 5796 5795 5793 5790 5788 5787 5787 5788 5789 5789 5788
5840 5839 5839 5839 5838 5838 5838 5837 5837 5837 5837 5836 5836 5836 5836 5835 5834 5833 5831 5828 5827 5828 5828 5829 5828 5827 5827 5827 5827 5827 5827 5827 5827 5827 5826 5826 5826 5826 5825 5824 5823 5822 5820 5819 5817 5817 5816 5815 5814 5813 5812 5812 5811 5810 5809 5808 5808 5808 5807 5807 5806 5806 5805 5804 5804 5803 5802 5801 5801 5800 5800 5799 5798 5797 5796 5794 5793 5792 5790 5788 5787 5786 5786 5786 5786 5785
5839 5838 5837 5837 5837 5837 5837 5837 5836 5836 5836 5836 5835 5835 5834 5834 5833 5832 5830 5828 5826 5826 5826 5827 5827 5826 5826 5826 5826 5827 5827 5826 5826 5825 5825 5824 5824 5824 5823 5822 5821 5820 5818 5816 5815 5814 5813 5812 5811 5810 5809 5808 5807 5806 5805 5805 5805 5804 5804 5803 5803 5802 5801 5801 5800 5800 5799 5799 5798 5797 5797 5796 5795 5794 5793 5792 5790 5789 5788 5787 5786 5785 5784 5783 5783 5782
5839 5838 5837 5837 5836 5836 5836 5835 5836 5836 5836 5836 5835 5835 5834 5833 5832 5832 5830 5828 5826 5826 5825 5825 5825 5825 5825 5825 5825 5826 5826 5825 5825 5824 5823 5823 5822 5822 5821 5820 5819 5818 5816 5814 5813 5812 5810 5809 5808 5807 5806 5804 5803 5802 5801 5801 5801 5801 5800 5799 5799 5798 5797 5797 5796 5796 5795 5795 5795 5794 5793 5793 5792 5791 5790 5789 5788 5786 5786 5785 5784 5783 5782 5781 5780 5779
5838 5838 5837 5836 5836 5835 5835 5835 5835 5835 5835 5835 5834 5834 5833 5832 5831 5831 5830 5828 5825 5824 5823 5823 5822 5822 5823 5823 5824 5824 5824 5824 5823 5822 5822 5821 5820 5819 5819 5818 5817 5816 5814 5812 5811 5810 5808 5806 5805 5803 5802 5801 5799 5798 5798 5797 5797 5796 5796 5795 5795 5794 5794 5793 5793 5792 5792 5791 5791 5790 5790 5789 5788 5787 5786 5786 5785 5784 5783 5782 5781 5780 5779 5778 5778 5777
5838 5837 5836 5836 5836 5835 5835 5834 5834 5833 5833 5833 5833 5832 5831 5831 5830 5829 5829 5827 5825 5823 5821 5820 5819 5819 5820 5821 5822 5823 5822 5822 5821 5820 5819 5819 5818 5817 5816 5815 5814 5813 5812 5810 5809 5807 5806 5804 5802 5800 5799 5798 5797 5795 5794 5793 5792 5791 5791 5790 5790 5789 5789 5789 5789 5789 5788 5788 5787 5787 5786 5785 5784 5783 5782 5782 5781 5781 5780 5779 5777 5776 5775 5775 5774 5773
5836 5836 5836 5835 5835 5835 5834 5833 5833 5832 5831 5831 5830 5829 5829 5829 5828 5827 5826 5825 5824 5822 5820 5819 5818 5815 5815 5817 5819 5820 5820 5820 5819 5818 5817 5816 5815 5815 5814 5813 5812 5811 5809 5808 5806 5805 5803 5801 5800 5798 5796 5795 5793 5792 5790 5789 5788 5787 5786 5785 5784 5784 5784 5784 5784 5784 5784 5784 5784 5783 5782 5781 5780 5779 5778 5777 5777 5776 5776 5775 5774 5773 5772 5771 5770 5770
5835 5835 5834 5834 5834 5833 5833 5832 5831 5830 5829 5828 5827 5827 5826 5826 5826 5825 5824 5823 5821 5820 5819 5818 5817 5814 5813 5814 5815 5817 5817 5817 5816 5815 5814 5814 5813 5812 5811 5810 5809 5808 5807 5805 5804 5802 5801 5798 5796 5795 5793 5792 5790 5788 5787 5785 5784 5782 5781 5780 5779 5778 5778 5778 5778 5778 5778 5778 5779 5779 5778 5777 5776 5775 5774 5773 5772 5771 5771 5771 5770 5768 5768 5767 5766 5766
5833 5833 5832 5832 5832 5831 5831 5830 5829 5828 5828 5827 5826 5825 5824 5824 5823 5822 5821 5820 5819 5818 5817 5816 5815 5813 5811 5811 5813 5813 5814 5813 5812 5812 5811 5810 5810 5809 5808 5807 5807 5805 5804 5803 5801 5799 5797 5795 5793 5792 5790 5788 5787 5785 5783 5782 5780 5778 5776 5774 5773 5772 5771 5771 5770 5770 5771 5771 5771 5771 5772 5772 5771 5771 5769 5768 5767 5766 5765 5766 5765 5764 5763 5763 5762 5762
5832 5831 5830 5830 5829 5829 5829 5828 5827 5826 5826 5825 5824 5823 5823 5821 5820 5820 5819 5818 5816 5816 5815 5812 5812 5810 5808 5809 5810 5810 5810 5809 5808 5808 5807 5806 5805 5805 5804 5804 5803 5802 5801 5799 5797 5796 5794 5792 5790 5788 5786 5785 5783 5781 5779 5778 5776 5774 5772 5771 5769 5768 5767 5766 5765 5764 5764 5763 5764 5764 5764 5764 5765 5765 5764 5763 5762 5760 5759 5759 5759 5759 5758 5758 5758 5757
5830 5830 5829 5828 5827 5827 5826 5826 5825 5824 5823 5822 5822 5821 5821 5820 5818 5817 5816 5815 5814 5813 5812 5809 5808 5807 5806 5806 5807 5806 5806 5806 5805 5804 5803 5802 5802 5801 5801 5800 5799 5798 5797 5795 5793 5792 5790 5788 5786 5784 5782 5780 5778 5777 5775 5773 5771 5769 5767 5766 5765 5764 5763 5762 5760 5759 5757 5756 5756 5757 5757 5757 5758 5758 5758 5757 5756 5755 5754 5752 5752 5753 5752 5752 5752 5752
5827 5827 5827 5826 5825 5824 5824 5823 5822 5821 5820 5820 5819 5819 5819 5818 5816 5815 5813 5812 5811 5810 5808 5807 5806 5804 5803 5804 5803 5803 5803 5803 5802 5801 5800 5799 5799 5798 5797 5796 5795 5794 5792 5791 5789 5787 5785 5783 5781 5779 5777 5776 5774 5772 5770 5768 5766 5763 5761 5760 5759 5758 5757 5756 5755 5752 5751 5750 5749 5749 5749 5750 5750 5750 5750 5750 5750 5748 5747 5746 5745 5745 5746 5746 5746 5746
5824 5824 5824 5823 5823 5822 5821 5820 5819 5818 5817 5816 5815 5815 5814 5814 5813 5812 5811 5809 5808 5807 5806 5804 5803 5801 5802 5802 5801 5800 5800 5799 5799 5798 5797 5796 5795 5794 5793 5792 5791 5789 5787 5786 5784 5782 5780 5778 5776 5774 5773 5771 5769 5767 5764 5762 5760 5758 5756 5755 5753 5752 5751 5749 5748 5746 5745 5744 5743 5742 5741 5741 5741 5742 5742 5742 5742 5741 5740 5740 5739 5738 5738 5739 5739 5740
5821 5820 5820 5819 5819 5819 5818 5817 5816 5815 5814 5813 5812 5811 5810 5809 5808 5808 5807 5806 5805 5804 5803 5802 5799 5798 5799 5799 5798 5798 5796 5796 5795 5794 5793 5792 5791 5790 5789 5787 5786 5784 5782 5780 5778 5776 5774 5772 5771 5769 5767 5765 5763 5761 5759 5756 5754 5753 5751 5750 5748 5746 5745 5743 5741 5740 5739 5738 5736 5735 5733 5732 5732 5732 5732 5732 5733 5733 5733 5732 5732 5731 5731 5732 5732 5733
5819 5818 5817 5816 5815 5814 5814 5813 5812 5811 5811 5810 5809 5808 5806 5805 5804 5803 5802 5802 5801 5799 5800 5799 5796 5795 5795 5794 5795 5794 5793 5792 5791 5790 5788 5787 5786 5785 5784 5782 5780 5779 5777 5775 5773 5771 5769 5767 5765 5763 5761 5759 5757 5755 5752 5750 5748 5746 5745 5744 5742 5740 5738 5737 5735 5733 5732 5730 5729 5727 5726 5725 5724 5723 5722 5722 5723 5723 5723 5724 5724 5724 5724 5724 5725 5726
5815 5815 5815 5813 5812 5811 5809 5808 5807 5807 5806 5805 5805 5804 5803 5802 5800 5799 5797 5797 5795 5794 5795 5796 5794 5793 5792 5791 5791 5790 5788 5788 5787 5785 5784 5783 5782 5781 5779 5777 5775 5773 5771 5769 5767 5765 5763 5762 5760 5758 5756 5753 5751 5748 5746 5743 5741 5739 5737 5735 5733 5731 5730 5729 5728 5726 5723 5721 5719 5718 5717 5716 5716 5715 5714 5714 5713 5713 5713 5713 5714 5715 5715 5716 5717 5718
5811 5811 5811 5810 5809 5808 5806 5804 5803 5803 5802 5801 5801 5800 5799 5798 5797 5795 5793 5791 5790 5788 5788 5789 5789 5789 5789 5788 5788 5786 5785 5784 5782 5780 5779 5778 5777 5775 5773 5771 5769 5767 5765 5763 5761 5759 5757 5756 5753 5751 5749 5746 5743 5740 5738 5735 5733 5730 5728 5725 5723 5722 5721 5720 5719 5717 5715 5713 5711 5709 5708 5707 5707 5706 5706 5705 5705 5704 5704 5704 5704 5705 5705 5706 5708 5709
5807 5807 5807 5807 5806 5804 5802 5800 5799 5798 5797 5797 5796 5796 5795 5793 5792 5791 5789 5787 5785 5782 5781 5782 5783 5784 5785 5784 5783 5782 5781 5779 5777 5774 5773 5772 5770 5768 5766 5765 5763 5761 5759 5756 5755 5753 5750 5748 5746 5743 5740 5737 5734 5732 5730 5727 5724 5722 5719 5717 5715 5713 5713 5711 5710 5709 5707 5705 5702 5701 5699 5699 5698 5697 5697 5696 5696 5695 5695 5695 5695 5695 5696 5696 5698 5699
5803 5802 5802 5803 5803 5801 5799 5797 5795 5794 5793 5791 5790 5790 5790 5789 5788 5786 5785 5783 5780 5777 5775 5775 5775 5778 5780 5779 5778 5777 5776 5773 5770 5768 5767 5765 5763 5761 5759 5757 5755 5753 5751 5749 5747 5745 5742 5739 5737 5734 5731 5728 5726 5724 5722 5719 5717 5714 5712 5709 5708 5706 5704 5703 5702 5701 5699 5696 5693 5691 5689 5689 5688 5688 5687 5686 5686 5686 5686 5686 5686 5687 5687 5687 5688 5689
5799 5797 5797 5797 5798 5797 5796 5794 5792 5790 5789 5787 5786 5784 5783 5783 5782 5781 5780 5779 5776 5773 5771 5769 5768 5772 5775 5774 5773 5772 5769 5766 5764 5762 5760 5759 5757 5755 5752 5750 5748 5746 5744 5742 5739 5737 5734 5731 5728 5725 5722 5720 5718 5716 5713 5711 5709 5707 5705 5702 5700 5698 5696 5694 5692 5691 5689 5686 5684 5681 5679 5677 5676 5676 5676 5676 5675 5675 5675 5675 5676 5676 5677 5677 5677 5678
5794 5793 5792 5792 5793 5793 5791 5789 5788 5786 5785 5784 5783 5780 5779 5777 5776 5775 5774 5773 5771 5768 5766 5763 5762 5766 5770 5769 5767 5766 5762 5759 5757 5755 5754 5752 5749 5747 5745 5743 5741 5739 5737 5734 5731 5728 5726 5723 5719 5717 5715 5712 5711 5708 5706 5703 5701 5698 5696 5693 5691 5689 5686 5684 5681 5679 5677 5675 5673 5671 5669 5667 5666 5664 5664 5664 5664 5664 5663 5663 5663 5664 5665 5666 5666 5667
5788 5787 5786 5786 5786 5787 5786 5785 5783 5782 5781 5779 5778 5777 5775 5773 5772 5770 5768 5767 5765 5762 5761 5758 5755 5759 5763 5763 5761 5759 5756 5753 5751 5748 5746 5744 5742 5740 5738 5736 5734 5731 5729 5726 5723 5721 5718 5715 5712 5710 5707 5705 5703 5700 5697 5694 5691 5688 5685 5682 5680 5678 5675 5673 5670 5668 5666 5665 5663 5661 5659 5658 5656 5654 5653 5653 5653 5653 5652 5652 5651 5652 5653 5654 5654 5655
5782 5781 5780 5780 5780 5780 5780 5779 5778 5777 5776 5774 5773 5772 5770 5769 5767 5765 5763 5762 5759 5758 5758 5754 5750 5752 5757 5756 5754 5752 5749 5747 5744 5742 5740 5737 5736 5734 5732 5730 5727 5724 5721 5718 5716 5713 5710 5708 5705 5702 5699 5696 5694 5691 5688 5684 5681 5678 5675 5672 5669 5667 5665 5663 5660 5658 5657 5655 5654 5652 5649 5647 5646 5644 5643 5641 5640 5640 5640 5639 5639 5640 5640 5642 5643 5643
5775 5775 5774 5774 5774 5774 5774 5773 5773 5771 5770 5769 5768 5766 5765 5763 5761 5760 5759 5756 5753 5755 5755 5749 5746 5749 5751 5749 5747 5745 5742 5740 5738 5735 5733 5731 5729 5728 5726 5723 5720 5717 5714 5711 5708 5705 5702 5699 5696 5693 5690 5687 5684 5681 5678 5676 5673 5670 5666 5663 5660 5657 5655 5653 5650 5648 5646 5645 5643 5641 5639 5636 5633 5631 5630 5629 5628 5628 5627 5627 5627 5627 5627 5629 5630 5630
5769 5768 5768 5768 5767 5767 5768 5768 5766 5765 5764 5764 5763 5761 5759 5757 5755 5754 5753 5749 5749 5751 5749 5744 5742 5745 5745 5742 5741 5739 5735 5733 5731 5728 5726 5725 5723 5721 5719 5715 5713 5710 5706 5703 5700 5697 5694 5691 5687 5684 5681 5678 5674 5672 5669 5666 5663 5660 5657 5654 5650 5646 5643 5641 5638 5636 5634 5632 5630 5629 5627 5623 5621 5619 5617 5617 5616 5616 5615 5615 5614 5614 5615 5615 5615 5616
5762 5762 5763 5761 5760 5760 5761 5761 5759 5758 5758 5758 5757 5756 5754 5751 5750 5748 5745 5744 5745 5744 5740 5740 5739 5738 5738 5737 5734 5731 5728 5726 5724 5721 5720 5718 5716 5713 5711 5708 5704 5701 5698 5694 5691 5688 5685 5682 5679 5675 5672 5669 5665 5662 5659 5656 5652 5649 5646 5643 5639 5635 5631 5628 5625 5623 5621 5618 5617 5616 5614 5611 5609 5607 5606 5605 5604 5603 5603 5603 5602 5602 5602 5601 5601 5601
5756 5756 5756 5755 5754 5755 5755 5754 5753 5751 5751 5751 5750 5750 5749 5747 5744 5742 5740 5741 5740 5734 5732 5737 5735 5729 5730 5732 5728 5724 5721 5719 5717 5715 5714 5712 5709 5706 5703 5700 5696 5693 5690 5686 5683 5680 5678 5674 5671 5667 5664 5660 5656 5653 5650 5646 5643 5639 5635 5632 5629 5624 5620 5616 5612 5610 5608 5605 5603 5602 5601 5599 5597 5595 5594 5593 5592 5592 5591 5591 5590 5589 5589 5588 5587 5587
5749 5749 5750 5749 5748 5749 5749 5748 5746 5744 5744 5744 5743 5743 5743 5740 5738 5738 5737 5736 5733 5727 5727 5731 5728 5723 5724 5726 5722 5718 5714 5712 5710 5709 5707 5705 5702 5699 5696 5692 5689 5685 5682 5679 5676 5673 5670 5667 5664 5660 5656 5652 5648 5644 5641 5637 5633 5629 5625 5622 5618 5614 5609 5604 5600 5598 5596 5594 5592 5590 5588 5586 5584 5583 5582 5581 5580 5580 5579 5579 5577 5576 5575 5574 5574 5574
5743 5743 5743 5742 5741 5743 5743 5741 5739 5738 5737 5737 5737 5737 5735 5733 5733 5733 5731 5730 5726 5722 5723 5724 5720 5718 5720 5718 5715 5712 5709 5706 5704 5702 5700 5698 5695 5692 5688 5685 5682 5679 5675 5672 5669 5666 5663 5659 5656 5652 5648 5644 5640 5635 5632 5628 5624 5619 5615 5611 5607 5603 5599 5594 5590 5587 5585 5583 5581 5579 5577 5575 5573 5572 5570 5569 5568 5567 5566 5566 5564 5563 5561 5560 5560 5560
5738 5737 5737 5735 5734 5737 5738 5735 5733 5731 5729 5730 5732 5731 5729 5728 5728 5726 5724 5722 5719 5716 5717 5715 5711 5713 5715 5711 5708 5706 5704 5701 5698 5695 5693 5690 5686 5684 5681 5677 5675 5672 5669 5666 5662 5659 5655 5650 5647 5643 5638 5634 5630 5626 5622 5618 5614 5609 5604 5600 5596 5592 5588 5584 5580 5578 5575 5573 5571 5568 5566 5564 5562 5560 5558 5557 5555 5553 5552 5551 5550 5550 5548 5547 5546 5545
5731 5730 5731 5729 5727 5730 5732 5728 5725 5724 5721 5723 5726 5726 5725 5723 5721 5719 5717 5715 5712 5710 5709 5706 5705 5706 5707 5703 5702 5700 5698 5694 5691 5688 5685 5681 5678 5675 5673 5670 5667 5665 5662 5658 5654 5650 5646 5642 5638 5633 5629 5624 5620 5616 5611 5606 5603 5599 5594 5589 5584 5581 5577 5574 5571 5568 5566 5563 5560 5557 5554 5551 5549 5547 5546 5543 5541 5538 5536 5535 5535 5535 5534 5532 5532 5531
5724 5723 5724 5722 5719 5722 5724 5720 5718 5716 5713 5716 5722 5722 5720 5716 5713 5712 5712 5710 5706 5704 5701 5700 5699 5699 5698 5696 5695 5692 5689 5686 5683 5679 5676 5673 5669 5666 5664 5662 5660 5657 5655 5651 5646 5642 5638 5633 5629 5624 5619 5614 5610 5605 5601 5596 5592 5588 5584 5579 5574 5571 5567 5564 5561 5558 5555 5553 5549 5545 5542 5539 5536 5534 5532 5529 5526 5523 5522 5520 5520 5520 5518 5517 5517 5516
5717 5717 5716 5714 5711 5713 5715 5712 5708 5705 5705 5712 5717 5715 5711 5709 5707 5706 5705 5703 5700 5697 5695 5694 5693 5692 5690 5689 5687 5683 5680 5677 5674 5670 5667 5664 5662 5658 5656 5655 5653 5650 5647 5643 5638 5634 5629 5624 5620 5616 5610 5605 5600 5596 5592 5587 5582 5578 5574 5570 5566 5562 5557 5553 5550 5546 5543 5540 5537 5533 5529 5526 5522 5519 5517 5514 5511 5508 5507 5505 5504 5504 5503 5502 5502 5503
5710 5709 5708 5707 5705 5704 5706 5703 5697 5696 5702 5707 5707 5705 5702 5701 5700 5699 5697 5696 5693 5690 5689 5688 5686 5685 5683 5680 5678 5675 5672 5669 5666 5663 5659 5656 5654 5652 5650 5648 5645 5641 5637 5633 5629 5625 5620 5615 5611 5607 5603 5597 5592 5587 5584 5579 5574 5570 5566 5562 5557 5553 5548 5543 5539 5535 5530 5527 5523 5519 5515 5511 5507 5504 5502 5499 5496 5493 5492 5490 5489 5489 5488 5488 5489 5490
5702 5702 5700 5699 5697 5696 5697 5694 5689 5690 5697 5698 5696 5695 5694 5693 5692 5689 5687 5687 5685 5683 5683 5681 5679 5677 5675 5672 5669 5666 5664 5661 5658 5655 5652 5649 5647 5645 5642 5640 5636 5632 5628 5624 5619 5615 5611 5606 5601 5598 5594 5589 5584 5579 5575 5571 5566 5562 5558 5554 5548 5544 5539 5533 5528 5523 5517 5513 5509 5504 5500 5495 5491 5489 5487 5484 5482 5480 5479 5477 5476 5477 5476 5476 5477 5479
5695 5694 5693 5691 5689 5690 5688 5686 5684 5685 5688 5691 5691 5689 5687 5685 5683 5681 5679 5678 5677 5676 5676 5674 5671 5668 5665 5663 5661 5658 5656 5654 5650 5647 5644 5642 5640 5637 5634 5630 5626 5623 5619 5614 5610 5606 5601 5597 5593 5589 5585 5581 5576 5571 5567 5564 5559 5555 5551 5545 5539 5533 5527 5521 5514 5509 5504 5499 5495 5490 5486 5481 5478 5476 5474 5472 5470 5469 5468 5467 5466 5467 5466 5465 5467 5468
5686 5686 5686 5683 5682 5683 5681 5678 5678 5678 5680 5685 5686 5682 5680 5679 5677 5675 5673 5671 5671 5670 5668 5665 5662 5659 5657 5655 5653 5651 5649 5647 5644 5639 5636 5635 5633 5629 5626 5622 5618 5614 5610 5606 5603 5598 5593 5589 5586 5581 5577 5573 5570 5565 5561 5557 5552 5547 5542 5536 5529 5521 5514 5507 5501 5495 5491 5487 5483 5479 5475 5472 5468 5466 5465 5463 5461 5460 5459 5458 5458 5458 5457 5455 5456 5457
5678 5679 5679 5676 5674 5676 5674 5670 5671 5671 5673 5677 5677 5674 5673 5672 5670 5667 5664 5664 5665 5664 5660 5657 5655 5652 5651 5649 5647 5644 5641 5640 5639 5635 5629 5628 5625 5621 5618 5615 5610 5606 5602 5598 5594 5591 5587 5582 5578 5574 5570 5567 5563 5559 5554 5549 5544 5538 5532 5525 5517 5510 5502 5495 5490 5485 5481 5477 5474 5470 5467 5464 5462 5459 5457 5456 5454 5452 5451 5451 5450 5449 5447 5445 5445 5446
5671 5672 5672 5668 5667 5669 5667 5663 5663 5665 5667 5668 5667 5666 5666 5664 5662 5659 5656 5657 5658 5654 5651 5650 5648 5646 5644 5642 5640 5638 5634 5632 5633 5630 5625 5621 5618 5613 5609 5606 5602 5599 5595 5591 5586 5583 5580 5576 5572 5568 5564 5561 5557 5552 5547 5541 5535 5528 5522 5514 5507 5499 5492 5486 5481 5477 5473 5469 5466 5463 5461 5458 5455 5453 5451 5449 5448 5446 5444 5443 5441 5439 5437 5435 5433 5433
5663 5664 5664 5661 5661 5661 5658 5655 5655 5659 5661 5660 5658 5659 5658 5655 5653 5651 5650 5650 5648 5645 5644 5643 5640 5638 5637 5635 5633 5631 5628 5626 5625 5623 5619 5614 5610 5606 5601 5598 5595 5592 5588 5585 5580 5577 5574 5570 5566 5562 5559 5554 5550 5545 5539 5534 5528 5521 5514 5506 5498 5491 5484 5478 5473 5469 5466 5463 5460 5458 5455 5452 5450 5448 5446 5444 5441 5439 5437 5435 5432 5429 5427 5424 5423 5422
5655 5654 5654 5653 5653 5653 5652 5649 5647 5650 5655 5654 5651 5650 5650 5646 5645 5645 5644 5642 5640 5638 5638 5636 5633 5632 5630 5628 5626 5624 5622 5619 5617 5616 5612 5608 5603 5599 5595 5592 5590 5586 5582 5579 5575 5571 5569 5565 5561 5557 5553 5548 5542 5537 5533 5528 5523 5516 5509 5501 5492 5484 5477 5471 5467 5464 5461 5458 5456 5454 5451 5449 5446 5444 5441 5439 5436 5433 5431 5429 5426 5423 5421 5419 5417 5416
5646 5645 5643 5644 5645 5644 5643 5641 5639 5642 5647 5647 5643 5641 5640 5639 5638 5637 5636 5635 5634 5633 5632 5629 5628 5626 5624 5622 5620 5617 5615 5613 5611 5609 5606 5601 5597 5593 5590 5587 5584 5581 5577 5573 5570 5567 5564 5561 5557 5552 5547 5542 5537 5532 5528 5524 5519 5512 5504 5496 5487 5479 5472 5467 5463 5461 5458 5456 5453 5451 5448 5445 5443 5440 5437 5435 5432 5430 5428 5426 5423 5421 5420 5418 5416 5416
5636 5636 5635 5636 5637 5635 5634 5634 5633 5635 5638 5637 5635 5633 5632 5631 5631 5630 5629 5629 5628 5627 5625 5624 5622 5620 5618 5616 5613 5611 5609 5608 5605 5603 5600 5595 5591 5588 5585 5582 5579 5575 5572 5569 5566 5563 5559 5556 5552 5547 5541 5537 5533 5529 5525 5520 5514 5507 5499 5492 5484 5478 5472 5467 5463 5460 5458 5455 5451 5448 5445 5442 5440 5438 5436 5433 5431 5430 5428 5426 5423 5421 5421 5420 5419 5419
5628 5629 5629 5629 5628 5627 5627 5628 5628 5628 5629 5628 5627 5626 5624 5623 5623 5623 5623 5623 5621 5620 5619 5618 5616 5614 5612 5610 5608 5606 5604 5602 5599 5597 5593 5589 5586 5583 5580 5577 5573 5570 5567 5565 5562 5558 5554 5551 5547 5542 5537 5533 5529 5525 5521 5515 5509 5503 5496 5489 5483 5477 5473 5468 5464 5461 5457 5453 5450 5446 5444 5442 5439 5437 5436 5434 5433 5431 5430 5428 5426 5424 5424 5424 5423 5423
5620 5621 5621 5621 5620 5619 5620 5622 5622 5622 5621 5620 5619 5618 5617 5616 5617 5617 5616 5616 5615 5613 5612 5611 5609 5607 5605 5603 5602 5600 5597 5595 5593 5590 5586 5583 5580 5577 5574 5572 5568 5565 5563 5560 5557 5553 5550 5546 5542 5538 5534 5530 5526 5522 5516 5510 5504 5499 5493 5488 5482 5477 5472 5468 5464 5460 5456 5452 5449 5446 5444 5442 5440 5438 5437 5435 5434 5433 5432 5431 5429 5428 5428 5427 5426 5425
5612 5612 5611 5611 5612 5612 5613 5615 5615 5614 5612 5611 5610 5610 5611 5610 5610 5610 5609 5608 5607 5606 5605 5603 5602 5600 5598 5597 5595 5594 5591 5589 5586 5583 5579 5577 5574 5572 5569 5567 5564 5561 5559 5556 5552 5549 5545 5542 5538 5535 5531 5527 5523 5518 5513 5506 5501 5496 5491 5486 5481 5476 5472 5467 5463 5460 5456 5453 5450 5447 5445 5443 5442 5440 5439 5437 5436 5434 5433 5433 5432 5432 5432 5431 5429 5428
5602 5602 5602 5603 5605 5606 5606 5607 5606 5605 5604 5604 5603 5604 5604 5604 5603 5603 5602 5601 5600 5599 5598 5597 5595 5594 5593 5591 5590 5588 5585 5582 5579 5577 5574 5571 5569 5567 5564 5562 5560 5557 5555 5551 5548 5544 5541 5538 5535 5532 5528 5525 5521 5515 5510 5504 5499 5494 5489 5484 5480 5475 5471 5467 5464 5461 5457 5454 5451 5448 5447 5445 5444 5443 5441 5440 5438 5437 5436 5437 5437 5436 5436 5434 5432 5432
5594 5595 5596 5597 5598 5599 5598 5597 5596 5597 5598 5598 5598 5598 5597 5597 5596 5596 5595 5595 5594 5593 5592 5591 5590 5589 5587 5586 5584 5582 5579 5576 5573 5571 5568 5566 5564 5562 5560 5558 5556 5553 5550 5547 5543 5540 5537 5535 5532 5529 5525 5522 5518 5513 5507 5502 5497 5492 5488 5483 5479 5475 5471 5468 5465 5463 5459 5456 5453 5450 5449 5448 5447 5445 5444 5443 5442 5441 5441 5441 5441 5440 5439 5437 5437 5437
5588 5588 5588 5588 5590 5591 5589 5587 5588 5591 5592 5592 5591 5591 5591 5590 5590 5590 5589 5589 5589 5588 5587 5586 5584 5583 5582 5580 5579 5576 5573 5570 5567 5564 5562 5560 5559 5557 5555 5554 5552 5549 5546 5543 5540 5537 5534 5531 5529 5526 5523 5520 5516 5511 5506 5501 5496 5491 5487 5483 5479 5475 5471 5469 5467 5464 5461 5458 5455 5453 5452 5450 5449 5448 5447 5446 5445 5445 5445 5446 5445 5443 5442 5441 5441 5442
5581 5580 5580 5581 5581 5581 5580 5578 5580 5584 5586 5585 5584 5584 5585 5584 5584 5584 5584 5584 5583 5583 5582 5580 5579 5577 5576 5574 5572 5569 5566 5564 5561 5559 5557 5555 5554 5553 5551 5549 5547 5545 5543 5540 5537 5534 5531 5529 5526 5523 5521 5518 5514 5509 5505 5500 5494 5490 5486 5482 5478 5475 5472 5471 5469 5466 5463 5460 5458 5456 5455 5453 5453 5452 5451 5450 5450 5449 5450 5450 5448 5447 5446 5445 5447 5450